Hourly Data Report for September 04, 2017

All times are specified in Local Standard Time (LST). Add 1 hour to adjust for Daylight Saving Time where and when it is observed.

ST. JOHN'S INTL A
NEWFOUNDLAND

47°37'07.000" N
52°45'09.000" W
140.50 m
8403505
71801
YYT

Download Data

Hourly Data (September 2017)
Hourly Data Report for September 4, 2017
Temp Definition
°C
Dew Point Temp Definition
°C
Rel Hum Definition
%
Wind Dir Definition
10's deg

Wind Spd Definition
km/h
Visibility Definition
km
Stn Press Definition
kPa
Hmdx Definition


Wind Chill Definition


Weather Definition


TIME
00:30 Legend Double Dagger 10.7 7.3 79 25 16 24.1 100.54     LegendNANA
01:30 Legend Double Dagger 11.4 7.6 77 25 18 24.1 100.52     LegendNANA
02:30 Legend Double Dagger 11.2 7.4 77 25 18 24.1 100.47     Cloudy
03:30 Legend Double Dagger 11.1 6.8 75 26 22 24.1 100.47     LegendNANA
04:30 Legend Double Dagger 10.6 8.3 85 26 22 24.1 100.44     LegendNANA
05:30 Legend Double Dagger 10.4 8.3 86 25 17 24.1 100.44     Mostly Cloudy
06:30 Legend Double Dagger 11.0 7.8 81 24 12 24.1 100.38     LegendNANA
07:30 Legend Double Dagger 13.4 6.3 62 20 14 24.1 100.36     LegendNANA
08:30 Legend Double Dagger 13.6 8.0 68 19 20 24.1 100.33     Mostly Cloudy
09:30 Legend Double Dagger 14.6 9.1 69 19 19 24.1 100.24     LegendNANA
10:30 Legend Double Dagger 15.6 10.6 72 21 21 24.1 100.21     LegendNANA
11:30 Legend Double Dagger 16.8 10.9 68 18 30 24.1 100.08     Mostly Cloudy
12:30 Legend Double Dagger 16.0 10.7 71 18 29 24.1 99.99     LegendNANA
13:30 Legend Double Dagger 15.1 10.9 76 19 34 24.1 99.89     LegendNANA
14:30 Legend Double Dagger 13.9 11.3 84 18 34 24.1 99.81     Cloudy
15:30 Legend Double Dagger 13.5 11.8 89 18 35 24.1 99.69     LegendNANA
16:30 Legend Double Dagger 13.0 12.5 97 17 43 16.1 99.55     Drizzle
17:30 Legend Double Dagger 13.3 12.9 97 18 41 3.2 99.45     Rain,Fog
18:30 Legend Double Dagger 13.4 13.0 97 18 45 4.8 99.32     Moderate Rain,Fog
19:30 Legend Double Dagger 13.8 13.4 97 18 43 24.1 99.25     Rain
20:30 Legend Double Dagger 14.7 14.3 98 19 39 4.8 99.18     Drizzle,Fog
21:30 Legend Double Dagger 15.1 14.8 98 20 26 8.1 99.17     Drizzle,Fog
22:30 Legend Double Dagger 15.4 14.2 93 24 23 24.1 99.16     LegendNANA
23:30 Legend Double Dagger 14.7 13.4 92 23 28 24.1 99.19     Cloudy

Notes on Data Quality.

Legend

  • E = Estimated
  • M = Missing
  • NA = Not Available
  • ‡ = Partner data that is not subject to review by the National Climate Archives
Date modified: